SCOUT A DEB, 2994

Orbit data source: Space-Track

SCOUT A DEB, 2994 is space debris in LEO originally from a launch on Mon, 25 Sep 1967 UTC launched from the Air Force Western Test Range (AFWTR). Debris objects in space refer to the collection of defunct objects orbiting the Earth. Examples of debris include non-operational satellites, rocket bodies, and fragments generated from explosions, collisions, or faulty payload assembly.

Loading next visibility...
Identifier
2994, 1967-092C
Orbit
LEO
Country
Flag of USUS
Related business
Manufacturer
Unknown
Mission
Spacecraft
Bus & Motor
Unknown
Mass
Unknown
Launch date (UTC)
1967-09-25 (58 years ago)
Launch vehicle
Unknown
Launch site
Air Force Western Test Range (AFWTR)
Object type
Payload
Rocket body
Debris
Shape & HBR
Unknown shape, 0.1 m
Radar Cross Section
Small (<0.1 m²)

Expand to show TLE details & history
Last TLE update: 10 hours ago

TLE from 10 hours ago
0 SCOUT A DEB
1 02994U 67092C   25300.12289952  .00000615  00000-0  41727-3 0  9992
2 02994  89.4419 359.5071 0087953 215.3365 144.1965 13.97206499942238
Epoch: 2025-10-27T02:56Z
TLE epoch observation values (Epoch: 2025-10-27T02:56:58.518Z)
Latitude
0.00003°
Longitude
-80.46599°
Altitude
958.649 km
Speed
7.346 km/s
True Right ascension
23h 58m 01s
True Declination
0° 00' 00"
Sunlit
Object was in full shadow at epoch
Visualization orbit readout
Latitude
Unknown
Longitude
Unknown
Altitude
Unknown
Speed
Unknown
Apparent Right ascension
Unknown
Apparent Declination
Unknown
Sunlit
N/A
Visualization observer readout
Local Sidereal Time
08:30:42
Azimuth
Unknown
Elevation
Unknown
Doppler factor
Unknown
Orbital elements
Apogee altitude
964.484 km
Perigee altitude
836.449 km
Semi-major axis
7,278.603 km
Eccentricity
0.0088
Inclination
89.4419°
RAAN
359.5071°
Arg. of periapsis
215.3365°
True anomaly
144.78089°
Mean anomaly
144.1965°
Eccentric anomaly
144.48921°
Mean motion
3.49519 °/min
Orbital period
103 mins
BSTAR
0.00041727
Loading maneuver chart data...
Computing Atmospheric mass density...
Loading historical data...
Loading historical data...
Loading historical data...
Loading historical data...
Loading historical data...
Loading historical data...
Loading historical data...

Documentation

Showing up to 5 results
|